SBI6430 UIUU-UIII

Flight info

Callsign SBI6430
Flight time 0h 29m
Altitude 18000
Route PILUG1A PILUG B155 USONA USONA5A
Aircraft A319/M-SDE3FGHIRWY/LB1

Departure

Time 2026-04-21 15:57
Airport Baikal International Airport (UIUU)

Arrival

Time 2026-04-21 16:27
Airport Irkutsk International Airport (UIII)
Time Latitude Longitude Altitude Speed Heading
2026-04-21 15:46 51.80546 107.44002 1684 ft 0 kts 169°
2026-04-21 15:52 51.80544 107.44003 1684 ft 4 kts 169°
2026-04-21 15:52 51.80500 107.44050 1684 ft 8 kts 101°
2026-04-21 15:52 51.80516 107.44138 1689 ft 9 kts 51°
2026-04-21 15:53 51.80583 107.44151 1684 ft 13 kts 353°
2026-04-21 15:53 51.80627 107.44248 1691 ft 12 kts 81°
2026-04-21 15:53 51.80679 107.44315 1686 ft 10 kts 352°
2026-04-21 15:53 51.80715 107.44306 1690 ft 0 kts 349°
2026-04-21 15:54 51.80718 107.44305 1688 ft 1 kts 349°
2026-04-21 15:54 51.80719 107.44305 1687 ft 0 kts 349°
2026-04-21 15:54 51.80724 107.44303 1684 ft 3 kts 347°
2026-04-21 15:55 51.80806 107.44293 1694 ft 16 kts 25°
2026-04-21 15:55 51.80865 107.44521 1687 ft 34 kts 76°
2026-04-21 15:55 51.80920 107.44921 1683 ft 40 kts 78°
2026-04-21 15:55 51.80976 107.45352 1685 ft 39 kts 78°
2026-04-21 15:56 51.81024 107.45729 1683 ft 21 kts 82°
2026-04-21 15:56 51.81023 107.45875 1687 ft 10 kts 114°
2026-04-21 15:56 51.81041 107.45904 1690 ft 5 kts 302°
2026-04-21 15:56 51.81037 107.45818 1688 ft 12 kts 258°
2026-04-21 15:57 51.80998 107.45521 1686 ft 56 kts 258°
2026-04-21 15:57 51.80859 107.44483 1689 ft 128 kts 258°
2026-04-21 15:57 51.80657 107.42811 1928 ft 160 kts 260°
2026-04-21 15:57 51.80447 107.41067 2730 ft 157 kts 260°
2026-04-21 15:58 51.80247 107.39331 3501 ft 158 kts 257°
2026-04-21 15:58 51.80041 107.37621 4277 ft 152 kts 255°
2026-04-21 15:58 51.79831 107.35945 4917 ft 158 kts 255°
2026-04-21 15:58 51.79597 107.34078 5301 ft 179 kts 256°
2026-04-21 15:59 51.79353 107.32093 5986 ft 181 kts 257°
2026-04-21 15:59 51.79103 107.30088 6676 ft 185 kts 258°
2026-04-21 15:59 51.78855 107.28084 7448 ft 180 kts 259°
2026-04-21 15:59 51.78622 107.26067 8105 ft 184 kts 261°
2026-04-21 16:00 51.78586 107.24029 8833 ft 183 kts 282°
2026-04-21 16:00 51.78926 107.22066 9631 ft 181 kts 285°
2026-04-21 16:00 51.79255 107.20126 10370 ft 178 kts 285°
2026-04-21 16:00 51.79566 107.18207 11089 ft 175 kts 285°
2026-04-21 16:01 51.79859 107.16314 11804 ft 172 kts 285°
2026-04-21 16:01 51.80137 107.14446 12477 ft 172 kts 285°
2026-04-21 16:01 51.80461 107.12464 12741 ft 194 kts 287°
2026-04-21 16:01 51.80838 107.10240 12936 ft 218 kts 287°
2026-04-21 16:02 51.81262 107.07736 13254 ft 244 kts 287°
2026-04-21 16:02 51.81730 107.04948 13803 ft 270 kts 287°
2026-04-21 16:02 51.82237 107.01881 14285 ft 295 kts 286°
2026-04-21 16:02 51.82777 106.98554 14668 ft 317 kts 286°
2026-04-21 16:03 51.83350 106.94979 15092 ft 338 kts 286°
2026-04-21 16:03 51.83938 106.91260 15744 ft 345 kts 286°
2026-04-21 16:03 51.84532 106.87480 16483 ft 349 kts 286°
2026-04-21 16:03 51.85130 106.83655 17231 ft 352 kts 286°
2026-04-21 16:04 51.85732 106.79797 17807 ft 355 kts 286°
2026-04-21 16:04 51.86337 106.75928 17950 ft 355 kts 286°
2026-04-21 16:04 51.86739 106.73371 17973 ft 354 kts 286°
2026-04-21 16:04 51.87556 106.68173 17982 ft 372 kts 286°
2026-04-21 16:05 51.88208 106.64021 17972 ft 387 kts 286°
2026-04-21 16:05 51.88874 106.59773 17972 ft 391 kts 286°
2026-04-21 16:05 51.89542 106.55496 17971 ft 392 kts 285°
2026-04-21 16:05 51.90206 106.51215 17981 ft 392 kts 285°
2026-04-21 16:06 51.90652 106.48323 17978 ft 392 kts 285°
2026-04-21 16:06 51.91522 106.42653 17985 ft 392 kts 285°
2026-04-21 16:06 51.91963 106.39762 17987 ft 392 kts 285°
2026-04-21 16:06 51.92618 106.35474 17981 ft 392 kts 285°
2026-04-21 16:07 51.93485 106.29797 17989 ft 392 kts 285°
2026-04-21 16:07 51.93918 106.26961 17994 ft 392 kts 285°
2026-04-21 16:07 51.94572 106.22673 17998 ft 392 kts 285°
2026-04-21 16:07 51.95221 106.18391 17998 ft 392 kts 285°
2026-04-21 16:08 51.96315 106.09737 18007 ft 392 kts 282°
2026-04-21 16:08 51.96770 106.05374 18001 ft 392 kts 281°
2026-04-21 16:08 51.97204 106.01004 18005 ft 392 kts 281°
2026-04-21 16:09 51.97637 105.96637 18004 ft 392 kts 281°
2026-04-21 16:09 51.98079 105.92274 18008 ft 392 kts 281°
2026-04-21 16:09 51.98534 105.87910 18004 ft 392 kts 282°
2026-04-21 16:09 51.98997 105.83551 18003 ft 392 kts 282°
2026-04-21 16:10 51.99464 105.79191 18003 ft 392 kts 282°
2026-04-21 16:10 51.99924 105.74886 17999 ft 392 kts 282°
2026-04-21 16:10 52.00386 105.70524 17999 ft 392 kts 281°
2026-04-21 16:10 52.00845 105.66161 17996 ft 392 kts 281°
2026-04-21 16:11 52.01303 105.61797 17999 ft 392 kts 281°
2026-04-21 16:11 52.01761 105.57429 17995 ft 392 kts 281°
2026-04-21 16:11 52.02219 105.53062 17993 ft 393 kts 281°
2026-04-21 16:11 52.02675 105.48688 17989 ft 393 kts 281°
2026-04-21 16:12 52.03125 105.44317 17989 ft 393 kts 281°
2026-04-21 16:12 52.03356 105.39896 17982 ft 395 kts 272°
2026-04-21 16:12 52.03259 105.35426 17980 ft 396 kts 270°
2026-04-21 16:12 52.03157 105.30958 17980 ft 396 kts 270°
2026-04-21 16:13 52.03055 105.26491 17975 ft 396 kts 270°
2026-04-21 16:13 52.02952 105.22018 17971 ft 396 kts 270°
2026-04-21 16:13 52.02850 105.17548 17970 ft 396 kts 270°
2026-04-21 16:13 52.02748 105.13077 17963 ft 397 kts 270°
2026-04-21 16:14 52.02645 105.08602 17959 ft 396 kts 270°
2026-04-21 16:14 52.02538 105.04131 17958 ft 397 kts 270°
2026-04-21 16:14 52.02427 104.99656 17959 ft 397 kts 270°
2026-04-21 16:14 52.02313 104.95181 17952 ft 397 kts 270°
2026-04-21 16:15 52.02198 104.90709 17948 ft 397 kts 270°
2026-04-21 16:15 52.02080 104.86260 17766 ft 389 kts 270°
2026-04-21 16:15 52.01963 104.82041 17601 ft 370 kts 270°
2026-04-21 16:15 52.01880 104.77903 17463 ft 353 kts 274°
2026-04-21 16:16 52.02198 104.74119 17313 ft 336 kts 285°
2026-04-21 16:16 52.02955 104.70659 17164 ft 316 kts 296°
2026-04-21 16:16 52.03970 104.67615 17028 ft 298 kts 299°
2026-04-21 16:16 52.04953 104.64730 16679 ft 288 kts 298°
2026-04-21 16:17 52.05911 104.61899 16182 ft 284 kts 298°
2026-04-21 16:17 52.06858 104.59099 15651 ft 282 kts 298°
2026-04-21 16:17 52.07798 104.56313 15127 ft 280 kts 298°
2026-04-21 16:17 52.08730 104.53544 14632 ft 279 kts 298°
2026-04-21 16:18 52.09658 104.50779 14265 ft 278 kts 298°
2026-04-21 16:18 52.10561 104.48096 13906 ft 276 kts 298°
2026-04-21 16:18 52.11482 104.45360 13519 ft 275 kts 298°
2026-04-21 16:18 52.12398 104.42637 13112 ft 274 kts 298°
2026-04-21 16:19 52.13200 104.40249 12743 ft 273 kts 298°
2026-04-21 16:19 52.14086 104.37609 12321 ft 272 kts 298°
2026-04-21 16:19 52.14992 104.34908 11910 ft 271 kts 298°
2026-04-21 16:19 52.15894 104.32216 11492 ft 271 kts 298°
2026-04-21 16:20 52.16795 104.29526 11088 ft 270 kts 298°
2026-04-21 16:20 52.17693 104.26844 10674 ft 269 kts 297°
2026-04-21 16:20 52.18588 104.24166 10261 ft 269 kts 297°
2026-04-21 16:20 52.19480 104.21491 9852 ft 268 kts 297°
2026-04-21 16:21 52.20370 104.18819 9398 ft 268 kts 297°
2026-04-21 16:21 52.21257 104.16147 8945 ft 267 kts 297°
2026-04-21 16:21 52.22140 104.13485 8497 ft 267 kts 297°
2026-04-21 16:21 52.23010 104.10857 8281 ft 258 kts 297°
2026-04-21 16:22 52.24005 104.08489 7882 ft 253 kts 315°
2026-04-21 16:22 52.25512 104.07054 7339 ft 254 kts 341°
2026-04-21 16:22 52.27269 104.06874 6807 ft 257 kts
2026-04-21 16:22 52.28953 104.07845 6278 ft 256 kts 20°
2026-04-21 16:23 52.30580 104.08992 5730 ft 253 kts 20°
2026-04-21 16:23 52.32131 104.10303 5156 ft 252 kts 38°
2026-04-21 16:23 52.33078 104.12626 4651 ft 253 kts 75°
2026-04-21 16:23 52.33042 104.15363 4496 ft 233 kts 109°
2026-04-21 16:24 52.32455 104.17701 4420 ft 215 kts 114°
2026-04-21 16:24 52.31882 104.19904 4169 ft 208 kts 114°
2026-04-21 16:24 52.31319 104.22047 3870 ft 203 kts 114°
2026-04-21 16:24 52.30767 104.24136 3569 ft 197 kts 115°
2026-04-21 16:25 52.30233 104.26161 3275 ft 191 kts 115°
2026-04-21 16:25 52.29719 104.28109 3009 ft 184 kts 115°
2026-04-21 16:25 52.29215 104.30014 2710 ft 182 kts 115°
2026-04-21 16:25 52.28720 104.31889 2433 ft 176 kts 115°
2026-04-21 16:26 52.28247 104.33678 2186 ft 167 kts 115°
2026-04-21 16:26 52.27801 104.35361 1967 ft 153 kts 116°
2026-04-21 16:26 52.27408 104.36862 1766 ft 133 kts 115°
2026-04-21 16:26 52.27055 104.38181 1602 ft 117 kts 116°
2026-04-21 16:27 52.26756 104.39278 1635 ft 94 kts 114°
2026-04-21 16:27 52.26560 104.40073 1661 ft 54 kts 112°
2026-04-21 16:27 52.26433 104.40540 1680 ft 38 kts 115°
2026-04-21 16:27 52.26338 104.40873 1682 ft 28 kts 115°
2026-04-21 16:28 52.26269 104.41107 1687 ft 18 kts 116°
2026-04-21 16:28 52.26255 104.41153 1688 ft 0 kts 116°
2026-04-21 16:31 52.26253 104.41160 1688 ft 5 kts 116°
2026-04-21 16:31 52.26180 104.41279 1694 ft 17 kts 174°
2026-04-21 16:31 52.26077 104.41218 1693 ft 17 kts 204°
2026-04-21 16:31 52.25996 104.41083 1682 ft 20 kts 274°
2026-04-21 16:32 52.26050 104.40864 1683 ft 22 kts 292°
2026-04-21 16:32 52.26116 104.40615 1670 ft 25 kts 294°
2026-04-21 16:32 52.26191 104.40325 1663 ft 30 kts 293°
2026-04-21 16:32 52.26277 104.40003 1656 ft 32 kts 294°
2026-04-21 16:33 52.26370 104.39656 1648 ft 34 kts 293°
2026-04-21 16:33 52.26467 104.39289 1643 ft 35 kts 293°
2026-04-21 16:33 52.26564 104.38925 1637 ft 36 kts 294°
2026-04-21 16:33 52.26675 104.38511 1611 ft 43 kts 293°
2026-04-21 16:34 52.26790 104.38070 1603 ft 43 kts 294°
2026-04-21 16:34 52.26909 104.37629 1590 ft 34 kts 294°
2026-04-21 16:34 52.26983 104.37350 1586 ft 20 kts 293°
2026-04-21 16:34 52.26987 104.37132 1585 ft 20 kts 281°
2026-04-21 16:35 52.27036 104.36920 1585 ft 20 kts 287°
2026-04-21 16:35 52.27087 104.36702 1585 ft 21 kts 290°
2026-04-21 16:35 52.27137 104.36479 1586 ft 21 kts 291°
2026-04-21 16:35 52.27184 104.36252 1586 ft 21 kts 278°
2026-04-21 16:36 52.27179 104.36009 1586 ft 22 kts 266°
2026-04-21 16:36 52.27175 104.35861 1586 ft 4 kts 264°
2026-04-21 16:36 52.27162 104.35805 1586 ft 10 kts 244°
2026-04-21 16:36 52.27150 104.35685 1586 ft 0 kts 266°
2026-04-21 16:37 52.27149 104.35680 1586 ft 2 kts 266°
2026-04-21 16:37 52.27155 104.35616 1586 ft 7 kts 303°
2026-04-21 16:37 52.27186 104.35642 1579 ft 6 kts 82°
2026-04-21 16:38 52.27189 104.35690 1603 ft 5 kts 87°
2026-04-21 16:38 52.27189 104.35698 1603 ft 0 kts 88°